Location: Devore Heights
(34.2372°N, 117.4156°W)
Time: 15:08:44
(UTC+00:00)

Altair - Visible Passes

Search period start: 13 September 2024 00:00
Search period end: 23 September 2024 00:00
Orbit: 1501 x 1682 km, 47.2° (Epoch: 12 September)

Date Brightness Start Highest point End Pass type
(mag) Time Alt. Az. Time Alt. Az. Time Alt. Az.
13 Sep 9.3 08:30:45 17° E 08:30:45 17° E 08:33:19 10° ENE visible
13 Sep 7.4 10:28:46 84° WSW 10:29:13 89° NW 10:39:28 10° NE visible
13 Sep 8.3 12:26:48 14° W 12:35:07 44° NNW 12:44:45 10° NE visible
14 Sep 9.6 08:06:57 12° ENE 08:06:57 12° ENE 08:07:44 10° ENE visible
14 Sep 7.6 10:04:58 76° ENE 10:04:58 76° ENE 10:14:11 10° NE visible
14 Sep 8.2 12:03:00 21° W 12:09:43 46° NNW 12:19:25 10° NE visible
15 Sep 7.9 09:41:09 58° ENE 09:41:09 58° ENE 09:48:54 10° NE visible
15 Sep 8.1 11:39:09 28° WNW 11:44:20 48° NNW 11:54:05 10° NE visible
16 Sep 8.3 09:17:18 44° ENE 09:17:18 44° ENE 09:23:36 10° ENE visible
16 Sep 8.1 11:15:18 37° WNW 11:18:57 50° NNW 11:28:47 10° NE visible
17 Sep 8.7 08:53:25 33° ENE 08:53:25 33° ENE 08:58:18 10° ENE visible
17 Sep 7.9 10:51:26 46° WNW 10:53:35 52° NNW 11:03:28 10° NE visible
17 Sep 8.6 12:51:11 10° WNW 13:00:31 39° N 13:09:50 10° ENE visible
18 Sep 9.1 08:29:32 25° ENE 08:29:32 25° ENE 08:33:00 10° ENE visible
18 Sep 7.9 10:27:32 53° NW 10:28:14 54° NNW 10:38:10 10° NE visible
18 Sep 8.6 12:25:47 10° WNW 12:35:05 39° N 12:44:25 10° ENE visible
19 Sep 9.4 08:05:38 18° ENE 08:05:38 18° ENE 08:07:41 10° ENE visible
19 Sep 7.9 10:03:39 56° N 10:03:39 56° N 10:12:53 10° NE visible
19 Sep 8.5 12:01:39 14° WNW 12:09:40 39° N 12:19:00 10° ENE visible
20 Sep 9.6 07:41:44 12° ENE 07:41:44 12° ENE 07:42:21 10° ENE visible
20 Sep 8.1 09:39:44 51° NNE 09:39:44 51° NNE 09:47:35 10° NE visible
20 Sep 8.5 11:37:45 20° WNW 11:44:14 39° N 11:53:35 10° ENE visible
21 Sep 8.4 09:15:50 43° NNE 09:15:50 43° NNE 09:22:18 10° NE visible
21 Sep 8.5 11:13:50 26° NW 11:18:48 39° N 11:28:10 10° ENE visible
22 Sep 8.7 08:51:55 34° NE 08:51:55 34° NE 08:57:01 10° NE visible
22 Sep 8.4 10:49:56 32° NW 10:53:22 40° N 11:02:46 10° ENE visible
22 Sep 8.4 12:50:39 10° NW 13:00:24 48° NNE 13:10:06 10° E visible
